Retour au catalogue

THORAD DELTA 1 DEB

ActifLEO
NORAD 13527·DEBRIS·🇺🇸 United States

Lancé Nov 15, 1974 depuis Vandenberg Space Force Base

Loading…

Prochains Passages (prochaines 24 heures)

TLE

FraisSource: Space-Track

Époque: Sep 14, 2026, 22:55 UTC

1 13527U 74089EN  26257.95527257  .00000953  00000-0  57739-2 0  9990
2 13527 102.9180 260.2173 0343259  80.3312 298.2888 12.44131952 81999

Suivez THORAD DELTA 1 DEB en temps réel avec AllMySat

Download on the App Store